Torna al catalogo

DMSP 5D-2 F13 DEB

AttivoSSO
NORAD 40442·DEBRIS·🇺🇸 United States

Lanciato Mar 24, 1995 da Vandenberg Space Force Base

Loading…

Prossimi Passaggi (prossime 24 ore)

TLE

AggiornatoSource: Space-Track

Epoca: Sep 14, 2026, 00:08 UTC

1 40442U 95015AU  26257.00561454  .00000048  00000-0  47523-4 0  9998
2 40442  98.8544 269.7619 0011035   7.9640 352.1707 14.15022772595500

Traccia DMSP 5D-2 F13 DEB in tempo reale con AllMySat

Download on the App Store